N2YJJ-2 Weather Reports


Display with metric or nautical units.
time (UTC)temp
F
wind
direction
speed
MPH
gust
MPH
rain 1hr
in
rain 24hr
in
rain mn
in
humidity
%
barometer
mb
20260508090005 38 229 0.0 0.0 0.01 0.04 0.01 97 1017.2
20260508085006 38 229 0.0 0.0 0.00 0.03 0.00 97 1017.2
20260508084006 38 229 0.0 0.0 0.00 0.03 0.00 97 1017.3
20260508083006 38 229 0.0 0.0 0.00 0.03 0.00 97 1017.2
20260508081007 38 229 0.0 0.0 0.00 0.03 0.00 97 1017.2
20260508080006 38 229 0.0 0.0 0.00 0.03 0.00 97 1017.2
20260508075006 38 229 0.0 0.0 0.00 0.03 0.00 96 1017.1
20260508074006 38 229 0.0 0.0 0.00 0.03 0.00 96 1017.1
20260508072007 38 229 0.0 0.0 0.00 0.03 0.00 96 1017.3
20260508071006 38 229 0.0 0.0 0.00 0.03 0.00 96 1017.3
20260508070006 38 229 0.0 0.0 0.00 0.03 0.00 96 1017.3
20260508065006 39 229 0.0 0.0 0.00 0.03 0.00 95 1017.2
20260508063006 39 229 0.0 0.0 0.00 0.03 0.00 95 1017.3
20260508062005 39 229 0.0 0.0 0.00 0.03 0.00 95 1017.4
20260508060006 40 229 0.0 0.0 0.00 0.03 0.00 95 1017.1
20260508055006 40 229 0.0 0.0 0.00 0.03 0.00 95 1017.5
20260508054005 40 229 0.0 0.0 0.00 0.03 0.00 95 1017.6
20260508053006 41 229 0.0 0.0 0.00 0.03 0.00 95 1017.6
20260508052006 41 229 1.0 2.0 0.00 0.03 0.00 95 1017.7
20260508051008 41 229 0.0 1.0 0.00 0.03 0.00 95 1017.8
20260508050006 42 229 0.0 1.0 0.00 0.03 0.00 95 1017.7
20260508044006 42 229 1.0 1.0 0.00 0.03 0.00 95 1017.5
20260508043006 42 218 0.0 2.0 0.00 0.03 0.00 95 1017.5
20260508042006 43 218 0.0 1.0 0.00 0.03 0.00 95 1017.6
20260508041006 43 218 0.0 2.0 0.00 0.03 0.00 95 1017.5
20260508040007 43 179 0.0 1.0 0.00 0.03 0.00 95 1017.4
20260508035006 43 179 0.0 1.0 0.00 0.03 0.03 95 1017.7
20260508034006 43 179 1.0 1.0 0.00 0.03 0.03 94 1017.6
20260508033006 43 179 0.0 0.0 0.00 0.03 0.03 94 1017.5
20260508032008 43 179 0.0 0.0 0.01 0.03 0.03 94 1017.5
20260508030003 44 179 0.0 0.0 0.02 0.03 0.03 94 1017.6
20260508025003 44 179 0.0 2.0 0.02 0.03 0.03 93 1017.5
20260508023003 45 156 0.0 2.0 0.02 0.03 0.03 93 1017.5
20260508022003 45 241 0.0 2.0 0.01 0.02 0.02 93 1017.7
20260508021003 45 256 0.0 1.0 0.01 0.02 0.02 93 1017.7
20260508015003 45 186 1.0 2.0 0.00 0.01 0.01 91 1017.4
20260508014004 45 186 0.0 2.0 0.00 0.01 0.01 90 1017.3
20260508013005 45 173 0.0 0.0 0.00 0.01 0.01 90 1017.2
20260508012004 45 172 0.0 0.0 0.01 0.01 0.01 89 1017.1
20260508011003 45 172 0.0 0.0 0.01 0.01 0.01 88 1017.1
20260508010004 45 172 0.0 2.0 0.01 0.01 0.01 87 1017.1
20260508005002 45 309 0.0 2.0 0.01 0.01 0.01 86 1017.1
20260508003002 46 195 0.0 2.0 0.01 0.01 0.01 82 1017.1
20260508002002 47 195 0.0 2.0 0.00 0.00 0.00 80 1016.9
20260508001002 47 107 0.0 0.0 0.00 0.00 0.00 77 1016.6
20260508000002 47 107 0.0 0.0 0.00 0.00 0.00 76 1016.6
20260507234003 48 25 0.0 1.0 0.00 0.00 0.00 74 1016.3
20260507233003 48 25 0.0 3.0 0.00 0.00 0.00 74 1016.1
20260507232002 49 14 1.0 5.0 0.00 0.00 0.00 70 1016.0
20260507231002 49 4 3.0 6.0 0.00 0.00 0.00 69 1016.2
20260507230002 51 358 4.0 8.0 0.00 0.00 0.00 69 1016.1
20260507225003 51 4 0.0 1.0 0.00 0.00 0.00 70 1016.0
20260507224004 51 4 1.0 2.0 0.00 0.00 0.00 65 1016.1
20260507223002 51 5 0.0 2.0 0.00 0.00 0.00 63 1016.1
20260507222002 51 306 0.0 1.0 0.00 0.00 0.00 66 1016.1
20260507221003 51 306 0.0 3.0 0.00 0.00 0.00 66 1016.1
20260507220004 52 331 1.0 3.0 0.00 0.00 0.00 65 1016.1
20260507215003 52 329 1.0 3.0 0.00 0.01 0.00 64 1016.2
20260507214002 52 309 1.0 3.0 0.00 0.01 0.00 66 1016.2
20260507212002 52 351 1.0 7.0 0.00 0.02 0.00 61 1016.2
20260507211003 53 352 1.0 3.0 0.00 0.03 0.00 62 1016.1
20260507210002 52 1 2.0 6.0 0.00 0.04 0.00 61 1016.2
20260507205003 51 0 1.0 6.0 0.00 0.06 0.00 64 1016.1
20260507204004 52 356 2.0 5.0 0.00 0.09 0.00 61 1016.1
20260507203003 53 357 1.0 3.0 0.00 0.11 0.00 61 1016.0
20260507202002 53 252 1.0 3.0 0.00 0.11 0.00 58 1016.1
20260507201003 54 265 2.0 6.0 0.00 0.11 0.00 58 1016.1
20260507200003 54 262 2.0 8.0 0.00 0.11 0.00 56 1016.2
20260507195002 54 271 1.0 3.0 0.00 0.11 0.00 60 1016.3
20260507194002 54 277 1.0 3.0 0.00 0.11 0.00 58 1016.5
20260507193003 54 252 1.0 3.0 0.00 0.11 0.00 59 1016.5
20260507192003 54 302 1.0 5.0 0.00 0.11 0.00 56 1016.7
20260507191003 55 333 1.0 3.0 0.00 0.11 0.00 60 1016.6
20260507190004 54 332 1.0 3.0 0.00 0.11 0.00 60 1016.8
20260507185003 55 276 3.0 5.0 0.00 0.11 0.00 53 1016.8
20260507184003 55 301 2.0 3.0 0.00 0.11 0.00 55 1016.8
20260507183003 55 287 1.0 3.0 0.00 0.11 0.00 56 1016.9
20260507182003 56 355 2.0 5.0 0.00 0.11 0.00 56 1016.8
20260507181003 56 299 1.0 6.0 0.00 0.11 0.00 55 1016.7
20260507180003 57 350 3.0 6.0 0.00 0.11 0.00 54 1016.9
20260507175003 57 340 2.0 5.0 0.00 0.11 0.00 59 1016.9
20260507174003 56 332 2.0 5.0 0.00 0.11 0.00 57 1017.1
20260507173004 57 305 1.0 3.0 0.00 0.11 0.00 61 1017.1
20260507172004 56 41 1.0 5.0 0.00 0.11 0.00 56 1017.1
20260507171003 56 209 2.0 6.0 0.00 0.11 0.00 57 1017.2
20260507170004 56 336 2.0 5.0 0.00 0.11 0.00 59 1017.3
20260507164003 55 253 2.0 5.0 0.00 0.11 0.00 65 1017.6
20260507163004 54 342 3.0 6.0 0.00 0.11 0.00 66 1017.8
20260507162003 53 48 1.0 6.0 0.00 0.11 0.00 73 1018.0
20260507161004 53 25 3.0 8.0 0.00 0.11 0.00 69 1018.1
20260507160003 53 314 2.0 6.0 0.00 0.11 0.00 69 1018.2
20260507155004 54 287 1.0 3.0 0.00 0.11 0.00 69 1018.2
20260507152003 53 288 3.0 3.0 0.00 0.11 0.00 68 1018.3
20260507150003 53 281 1.0 3.0 0.00 0.11 0.00 72 1018.4
20260507145003 51 131 2.0 8.0 0.00 0.11 0.00 74 1018.5
20260507144003 51 67 1.0 7.0 0.00 0.11 0.00 74 1018.6
20260507143003 50 37 1.0 3.0 0.00 0.12 0.00 77 1018.6
20260507142003 49 17 2.0 3.0 0.00 0.12 0.00 78 1018.6
20260507141003 48 256 1.0 3.0 0.00 0.12 0.00 75 1018.6
20260507140005 47 219 2.0 3.0 0.00 0.12 0.00 78 1018.7
20260507134004 45 45 1.0 3.0 0.00 0.12 0.00 85 1018.8
20260507133004 44 71 1.0 3.0 0.00 0.12 0.00 86 1018.8
20260507132003 43 130 0.0 3.0 0.00 0.12 0.00 88 1019.0
20260507131004 42 139 2.0 3.0 0.00 0.13 0.00 91 1019.0
20260507130004 41 209 1.0 3.0 0.00 0.13 0.00 92 1019.2
20260507125004 41 101 0.0 2.0 0.00 0.13 0.00 96 1019.2
20260507124003 41 101 1.0 2.0 0.00 0.13 0.00 97 1019.2
20260507123004 40 101 0.0 2.0 0.00 0.13 0.00 97 1019.3
20260507122005 40 101 0.0 0.0 0.00 0.14 0.00 97 1019.2
20260507121004 40 101 0.0 0.0 0.00 0.14 0.00 97 1019.1
20260507120001 39 101 0.0 2.0 0.00 0.14 0.00 98 1019.3
20260507115001 39 101 0.0 2.0 0.00 0.14 0.00 98 1019.2
20260507113001 39 357 0.0 0.0 0.00 0.15 0.00 98 1019.2
20260507112001 39 357 0.0 2.0 0.00 0.16 0.00 98 1019.1
20260507111002 38 357 0.0 2.0 0.00 0.17 0.00 98 1019.1
20260507104003 39 0 1.0 3.0 0.00 0.18 0.00 98 1018.5
20260507103002 39 47 0.0 1.0 0.00 0.19 0.00 98 1018.2
20260507102001 39 15 0.0 0.0 0.00 0.19 0.00 98 1018.4
20260507101001 39 15 0.0 0.0 0.00 0.20 0.00 98 1018.4
20260507100002 39 15 0.0 0.0 0.00 0.21 0.00 98 1018.4
20260507095001 39 15 0.0 0.0 0.00 0.21 0.00 98 1018.6
20260507094002 40 15 0.0 0.0 0.00 0.21 0.00 98 1018.5
20260507093001 40 15 0.0 0.0 0.00 0.22 0.00 98 1018.4
20260507091002 40 15 0.0 1.0 0.00 0.24 0.00 99 1018.5